[[{"header":{"parameterUnit":"m.s-1","parameterCategory":1,"la1":30.2991,"la2":30.254,"lo1":-89.0895,"lo2":-89.0444,"dy":0.0017,"dx":0.0017,"nx":28,"ny":28,"refTime":"2024-05-19T21:00:00:Z","depth":0,"parameterNumber":2,"parameterNumberName":"U-component_of_WINDS"},"data":[0,0,0,0,0,0,0,0,0,0,0,0,0,0,0,0,0,0,0,0,0,0,0,0,0,0,0,0,0,0,0,0,0,0,0,0,0,0,0,0,0,0,0,0,0,0,0,0,0,0,0,0,0,0,0,0,0,0,0.0156,0.0157,0,0.0177,0.0177,0.0178,0.0167,0.0167,0.0166,0.0165,0.0189,0.019,0.0191,0,0,0,0,0,0,0,0,0,0,0,0,0,0.0108,0.0109,0.0156,0.0157,0.0157,0.0177,0.0177,0.0178,0.0167,0.0167,0.0166,0.0165,0.0188,0.019,0.0191,0,0,0,0,0,0,0,0,0,0,0,0,0,0.0129,0.011,0.0156,0.0154,0.0154,0.0177,0.0177,0.0178,0.0167,0.0167,0.0166,0.0165,0.0188,0.0189,0.0191,0.0218,0,0,0.0196,0.0197,0,0,0,0,0,0,0,0,0.0128,0.0131,0.0154,0.0154,0.0154,0.0169,0.0169,0.0191,0.0168,0.0162,0.0165,0.0165,0.0183,0.0185,0.0191,0.0219,0.022,0.0196,0.0197,0.0198,0.0199,0,0,0,0,0,0,0,0.0127,0.013,0.0165,0.0154,0.0155,0.0152,0.0154,0.0173,0.0177,0.0163,0.0162,0.0165,0.0183,0.0189,0.0191,0.022,0.0196,0.0198,0.0199,0.02,0.0271,0.0271,0,0,0,0,0,0,0.0125,0.0129,0.0164,0.0165,0.0139,0.0154,0.0156,0.0165,0.0177,0.0178,0.0165,0.0164,0.0186,0.0189,0.0192,0.0223,0.0198,0.02,0.0201,0.027,0.0271,0.0272,0,0,0,0,0,0,0.0124,0.0128,0.0163,0.0147,0.0151,0.0155,0.0165,0.0166,0.0172,0.0179,0.0179,0.0171,0.0186,0.0189,0.0211,0.0224,0.0201,0.0202,0.0269,0.027,0.0271,0.0286,0,0,0,0,0,0,0.0123,0.0128,0.0138,0.0147,0.0152,0.0182,0.0166,0.0167,0.0175,0.0173,0.0184,0.0185,0.0186,0.0209,0.0213,0.0226,0.0203,0.0268,0.0269,0.0271,0.0284,0.0288,0.029,0,0,0,0,0,0.0121,0.0142,0.0139,0.0143,0.0165,0.0183,0.0185,0.0185,0.0176,0.0186,0.019,0.0185,0.0222,0.0211,0.0216,0.0229,0.0267,0.0269,0.0271,0.0283,0.0287,0.029,0,0,0,0,0,0,0.0136,0.0144,0.014,0.0164,0.0173,0.0181,0.0194,0.0189,0.0201,0.0199,0.0199,0.0201,0.0224,0.0229,0.0217,0.0255,0.0243,0.0246,0.0251,0.0255,0.0257,0.0256,0.0205,0,0,0,0,0,0.0142,0.0155,0.0161,0.0183,0.0187,0.019,0.0197,0.0196,0.0205,0.0209,0.0214,0.0224,0.0237,0.0246,0.0259,0.0285,0.0287,0.0297,0.03,0.0302,0.0305,0.0317,0.0321,0.0278,0.0278,0.0278,0,0,0.0155,0.016,0.0169,0.0186,0.0192,0.0206,0.0193,0.0208,0.0219,0.0211,0.0232,0.0236,0.0246,0.027,0.0281,0.0275,0.0317,0.0305,0.0306,0.0308,0.032,0.0324,0.0327,0.0279,0.0279,0.0279,0,0,0.0184,0.0191,0.0208,0.0214,0.0224,0.0225,0.0229,0.0238,0.024,0.026,0.0255,0.0267,0.0291,0.0298,0.0305,0.0336,0.0331,0.034,0.0356,0.0368,0.0372,0.0375,0.0385,0.0389,0.0343,0.0343,0.0343,0,0.0199,0.022,0.0218,0.0234,0.0241,0.0234,0.0251,0.0258,0.0271,0.0276,0.0269,0.0298,0.0304,0.0329,0.0336,0.0342,0.0346,0.0339,0.0371,0.0374,0.0377,0.0387,0.0391,0.0344,0.0344,0.0343,0.0343,0,0.0237,0.0251,0.0264,0.0276,0.0284,0.0301,0.0302,0.0311,0.0309,0.0311,0.0331,0.0338,0.0352,0.0358,0.0356,0.0382,0.0377,0.0371,0.0359,0.0382,0.0391,0.0395,0.0345,0.0345,0.0344,0.0344,0,0,0.0277,0.0287,0.0291,0.0296,0.0305,0.0316,0.0332,0.0345,0.0352,0.0362,0.0374,0.0394,0.0387,0.0395,0.0394,0.0405,0.0428,0.0397,0.0397,0.0402,0.0455,0.0459,0.0464,0.0425,0.0426,0.0426,0.0454,0,0.0307,0.0334,0.0332,0.0358,0.037,0.0363,0.0377,0.0384,0.0387,0.0398,0.04,0.0414,0.0405,0.0409,0.042,0.0423,0.0439,0.0421,0.0437,0.0438,0.0434,0.0469,0.0474,0.0499,0.0458,0.0458,0.0459,0,0.0345,0.0354,0.0381,0.0387,0.0392,0.0405,0.0415,0.0426,0.0434,0.0434,0.0442,0.0439,0.0455,0.0443,0.0464,0.0452,0.0459,0.0461,0.0462,0.0463,0.0449,0.047,0.0508,0.0511,0.0464,0.0464,0.0464,0,0.037,0.039,0.0408,0.0412,0.042,0.0429,0.0432,0.0439,0.0446,0.0456,0.046,0.0472,0.0478,0.0487,0.0487,0.0478,0.0509,0.0497,0.051,0.0509,0.0516,0.0516,0.0555,0.0521,0.0521,0.0521,0.0521,0,0.0403,0.042,0.0419,0.043,0.0448,0.0446,0.0463,0.0466,0.0472,0.0484,0.0479,0.049,0.0489,0.0501,0.0501,0.0518,0.0521,0.0522,0.0522,0.0522,0.0522,0.0526,0.0524,0.0522,0.0522,0.0522,0.0522,0,0.0434,0.0435,0.0454,0.0459,0.0461,0.0474,0.0478,0.0489,0.049,0.0504,0.0508,0.051,0.0523,0.0523,0.0539,0.0539,0.0559,0.0558,0.0556,0.0556,0.0568,0.0567,0.0611,0.0616,0.058,0.058,0.0581,0,0.0455,0.0467,0.0473,0.048,0.0484,0.0496,0.0502,0.0501,0.0508,0.0517,0.0526,0.0538,0.0548,0.0568,0.0571,0.0582,0.058,0.0595,0.0582,0.0582,0.058,0.0578,0.0579,0.0597,0.0598,0.0598,0.0598,0,0.0491,0.049,0.05,0.051,0.0518,0.0526,0.0533,0.0539,0.0538,0.0546,0.0559,0.0566,0.058,0.0592,0.0602,0.0607,0.0602,0.0602,0.0606,0.0606,0.0604,0.0604,0.0562,0.0601,0.0601,0.0601,0.0601,0.0601,0.0517,0.0527,0.0533,0.0543,0.0548,0.0555,0.0564,0.0566,0.0576,0.0587,0.0586,0.0599,0.0606,0.0619,0.0624,0.0635,0.063,0.0635,0.0636,0.0637,0.0638,0.0603,0.0637,0.0637,0.0637,0.0637,0.0637,0,0.0552,0.0555,0.0565,0.0574,0.0583,0.0577,0.0585,0.0592,0.0604,0.061,0.0619,0.0632,0.0643,0.0647,0.0657,0.0665,0.0663,0.0668,0.0667,0.0668,0.0643,0.0638,0.0669,0.0669,0.0669,0.0669,0.0669,0.0669,0.0571,0.0587,0.0587,0.0605,0.0608,0.0621,0.0625,0.0631,0.0636,0.0651,0.066,0.0662,0.0667,0.0677,0.0687,0.0688,0.0692,0.0697,0.0697,0.0673,0.067,0.0667,0.0662,0.0698,0.0698,0.0721,0.0721,0.0721]},{"header":{"parameterUnit":"m.s-1","parameterCategory":1,"la1":30.2991,"la2":30.254,"lo1":-89.0895,"lo2":-89.0444,"dy":0.0017,"dx":0.0017,"nx":28,"ny":28,"refTime":"2024-05-19T21:00:00:Z","depth":0,"parameterNumber":3,"parameterNumberName":"V-component_of_WINDS"},"data":[0,0,0,0,0,0,0,0,0,0,0,0,0,0,0,0,0,0,0,0,0,0,0,0,0,0,0,0,0,0,0,0,0,0,0,0,0,0,0,0,0,0,0,0,0,0,0,0,0,0,0,0,0,0,0,0,0,0,1.1972,1.197,0,1.1837,1.1835,1.1834,1.1735,1.1734,1.1733,1.1733,1.1589,1.1586,1.1583,0,0,0,0,0,0,0,0,0,0,0,0,0,1.2138,1.2136,1.1972,1.197,1.1969,1.1837,1.1835,1.1833,1.1735,1.1734,1.1733,1.1732,1.159,1.1586,1.1583,0,0,0,0,0,0,0,0,0,0,0,0,0,1.2041,1.2135,1.1972,1.1904,1.1896,1.1838,1.1835,1.1833,1.1735,1.1734,1.1733,1.1732,1.1591,1.1587,1.1582,1.1579,0,0,1.1568,1.1566,0,0,0,0,0,0,0,0,1.2046,1.2035,1.1916,1.1908,1.19,1.1802,1.1841,1.1748,1.1736,1.1796,1.1733,1.1731,1.166,1.165,1.1627,1.1572,1.1566,1.1568,1.1565,1.1563,1.1562,0,0,0,0,0,0,0,1.2053,1.204,1.1918,1.1914,1.1904,1.1878,1.1863,1.1823,1.1737,1.1791,1.1783,1.1769,1.1656,1.1632,1.1623,1.1564,1.1568,1.1564,1.1561,1.1559,1.1497,1.1498,0,0,0,0,0,0,1.2072,1.2046,1.1923,1.1914,1.1972,1.1876,1.1859,1.1834,1.1737,1.1721,1.177,1.1765,1.164,1.1629,1.1618,1.1606,1.1563,1.1559,1.1556,1.1496,1.1497,1.1499,0,0,0,0,0,0,1.2076,1.2062,1.1928,1.1978,1.1959,1.1874,1.1848,1.1832,1.1808,1.1722,1.1705,1.1762,1.1639,1.1624,1.1589,1.16,1.1557,1.1553,1.1495,1.1496,1.1498,1.1585,0,0,0,0,0,0,1.2081,1.2064,1.2063,1.1979,1.1957,1.1904,1.1848,1.1831,1.1801,1.1793,1.171,1.1694,1.1637,1.1597,1.1585,1.1593,1.1549,1.1493,1.1495,1.1497,1.1581,1.1589,1.1597,0,0,0,0,0,1.2087,1.2092,1.2064,1.2049,1.1955,1.1905,1.1892,1.1827,1.1803,1.18,1.1744,1.1697,1.1601,1.1594,1.158,1.1587,1.1492,1.1495,1.1497,1.1577,1.1587,1.1596,0,0,0,0,0,0,1.2178,1.208,1.2047,1.2026,1.1975,1.1889,1.1884,1.1841,1.1794,1.1788,1.1708,1.169,1.1663,1.1621,1.1615,1.1577,1.1541,1.154,1.1606,1.1615,1.1623,1.1634,1.1545,0,0,0,0,0,1.2196,1.2165,1.208,1.2069,1.2046,1.197,1.1945,1.19,1.1843,1.182,1.1761,1.1707,1.1664,1.1637,1.1593,1.1574,1.1553,1.1571,1.158,1.1587,1.1587,1.1572,1.1579,1.1507,1.1507,1.1507,0,0,1.2231,1.2174,1.216,1.2086,1.2041,1.201,1.1952,1.1921,1.1896,1.1815,1.1779,1.1734,1.1667,1.164,1.1625,1.1604,1.1603,1.159,1.1596,1.1592,1.1576,1.1583,1.1589,1.1508,1.1508,1.1508,0,0,1.2281,1.2235,1.222,1.2177,1.211,1.2059,1.2056,1.1976,1.1943,1.1906,1.1844,1.1812,1.1741,1.1695,1.1663,1.1694,1.1648,1.1682,1.1723,1.171,1.1716,1.172,1.173,1.1735,1.1682,1.1683,1.1683,0,1.2333,1.2285,1.2218,1.219,1.2159,1.2086,1.2069,1.2029,1.1951,1.193,1.1908,1.1816,1.1766,1.1727,1.1735,1.1711,1.1703,1.1691,1.1721,1.1725,1.1728,1.1736,1.174,1.1687,1.1687,1.1686,1.1686,0,1.2352,1.2319,1.2315,1.2243,1.2211,1.219,1.2117,1.2092,1.2049,1.2,1.1962,1.1899,1.1841,1.1828,1.1785,1.1782,1.1771,1.1736,1.1697,1.174,1.1747,1.175,1.1694,1.1692,1.1691,1.169,0,0,1.2455,1.2346,1.2345,1.2311,1.2232,1.2204,1.2178,1.2123,1.2102,1.205,1.2025,1.1966,1.1933,1.1896,1.1848,1.1836,1.1863,1.1802,1.1799,1.1815,1.1854,1.1881,1.1886,1.1832,1.1833,1.1833,1.1859,0,1.2491,1.2443,1.2381,1.2352,1.232,1.225,1.2226,1.2174,1.2127,1.2091,1.2038,1.1998,1.1958,1.1935,1.192,1.1863,1.187,1.186,1.1806,1.1805,1.1825,1.1889,1.1917,1.1945,1.1862,1.1862,1.1862,0,1.2527,1.248,1.245,1.2372,1.2356,1.2337,1.228,1.2248,1.2186,1.2152,1.2112,1.2059,1.2026,1.1992,1.1943,1.1939,1.1912,1.1881,1.188,1.1872,1.1836,1.1882,1.1952,1.1957,1.1866,1.1865,1.1865,0,1.2604,1.2533,1.2505,1.2478,1.2388,1.2376,1.2337,1.2274,1.2244,1.2194,1.2173,1.2119,1.209,1.2048,1.1982,1.1963,1.194,1.1901,1.1909,1.1911,1.1907,1.1908,1.1974,1.1892,1.1892,1.1892,1.1892,0,1.265,1.2634,1.2539,1.2521,1.25,1.2428,1.2408,1.2363,1.2308,1.2278,1.2213,1.2187,1.2102,1.2064,1.2012,1.1979,1.1966,1.1937,1.1923,1.1942,1.1946,1.1924,1.192,1.1893,1.1893,1.1892,1.1892,0,1.2733,1.2669,1.2633,1.2551,1.2529,1.2517,1.2445,1.2424,1.2374,1.2338,1.2325,1.2245,1.2198,1.2128,1.2059,1.2023,1.1998,1.1976,1.202,1.2012,1.2024,1.2024,1.2077,1.208,1.1998,1.1999,1.1999,0,1.2767,1.2752,1.2669,1.2645,1.2609,1.2573,1.2542,1.247,1.2441,1.2369,1.2357,1.2305,1.226,1.2187,1.2121,1.2068,1.2044,1.2066,1.2035,1.2055,1.2043,1.2044,1.2042,1.2073,1.2075,1.2076,1.2076,0,1.2833,1.2802,1.2761,1.271,1.2676,1.2631,1.2583,1.2567,1.2484,1.2454,1.2406,1.2371,1.2301,1.225,1.2188,1.2145,1.2096,1.2087,1.2086,1.2105,1.2131,1.2116,1.2039,1.2086,1.2085,1.2084,1.2084,1.2083,1.2891,1.2875,1.2813,1.277,1.2727,1.2683,1.266,1.2606,1.2566,1.2505,1.2464,1.2418,1.2355,1.2266,1.2226,1.2188,1.2167,1.2166,1.2165,1.2166,1.2173,1.2138,1.2176,1.2176,1.2175,1.2175,1.2175,0,1.2953,1.291,1.2871,1.2807,1.2772,1.2732,1.2676,1.2649,1.261,1.2556,1.2514,1.2458,1.2407,1.2338,1.2282,1.2264,1.224,1.2252,1.2252,1.2243,1.2195,1.2201,1.2272,1.2272,1.2272,1.2272,1.2272,1.2272,1.2981,1.2952,1.2913,1.286,1.2816,1.2773,1.2744,1.2703,1.2659,1.2601,1.2559,1.2515,1.2454,1.2393,1.2344,1.2325,1.2307,1.2325,1.2299,1.2255,1.2246,1.2238,1.2243,1.2322,1.2322,1.2349,1.235,1.235]}]]